[[{"header":{"parameterUnit":"m.s-1","parameterCategory":1,"la1":30.2991,"la2":30.254,"lo1":-89.0895,"lo2":-89.0444,"dy":0.0017,"dx":0.0017,"nx":28,"ny":28,"refTime":"2024-06-07T09:00:00:Z","depth":0,"parameterNumber":2,"parameterNumberName":"U-component_of_WINDS"},"data":[0,0,0,0,0,0,0,0,0,0,0,0,0,0,0,0,0,0,0,0,0,0,0,0,0,0,0,0,0,0,0,0,0,0,0,0,0,0,0,0,0,0,0,0,0,0,0,0,0,0,0,0,0,0,0,0,0,0,-3.5356,-3.5356,0,-3.5341,-3.5341,-3.5341,-3.5269,-3.5268,-3.5266,-3.5264,-3.525,-3.5251,-3.5253,0,0,0,0,0,0,0,0,0,0,0,0,0,-3.5324,-3.5325,-3.5356,-3.5356,-3.5355,-3.5341,-3.5341,-3.5341,-3.527,-3.5268,-3.5266,-3.5264,-3.525,-3.5251,-3.5253,0,0,0,0,0,0,0,0,0,0,0,0,0,-3.5326,-3.5325,-3.5356,-3.5318,-3.5315,-3.5341,-3.5341,-3.5341,-3.527,-3.5268,-3.5265,-3.5263,-3.5249,-3.5251,-3.5253,-3.5315,0,0,-3.5258,-3.5259,0,0,0,0,0,0,0,0,-3.5326,-3.5328,-3.5324,-3.5321,-3.5317,-3.5304,-3.5324,-3.5332,-3.5271,-3.5287,-3.5264,-3.5261,-3.527,-3.527,-3.5273,-3.5314,-3.5313,-3.5258,-3.526,-3.526,-3.5261,0,0,0,0,0,0,0,-3.5326,-3.5328,-3.535,-3.5324,-3.532,-3.5303,-3.53,-3.5325,-3.5293,-3.5285,-3.528,-3.5279,-3.5268,-3.5272,-3.5272,-3.5313,-3.5258,-3.526,-3.5261,-3.5262,-3.5405,-3.5407,0,0,0,0,0,0,-3.5331,-3.5328,-3.535,-3.535,-3.5315,-3.5305,-3.5302,-3.5311,-3.5293,-3.5287,-3.5282,-3.5276,-3.527,-3.527,-3.5271,-3.5343,-3.526,-3.5262,-3.5263,-3.5402,-3.5405,-3.5408,0,0,0,0,0,0,-3.5331,-3.5334,-3.5351,-3.5337,-3.5338,-3.5308,-3.5319,-3.5312,-3.5315,-3.529,-3.5284,-3.5291,-3.5268,-3.5269,-3.5304,-3.5341,-3.5263,-3.5264,-3.5399,-3.5403,-3.5407,-3.5486,0,0,0,0,0,0,-3.533,-3.5334,-3.5357,-3.5338,-3.5339,-3.5384,-3.5321,-3.5314,-3.5319,-3.5311,-3.5297,-3.5292,-3.5266,-3.5302,-3.5306,-3.5342,-3.5266,-3.5395,-3.5401,-3.5406,-3.548,-3.5493,-3.5503,0,0,0,0,0,-3.5329,-3.538,-3.5358,-3.5361,-3.5367,-3.5386,-3.5387,-3.5355,-3.5322,-3.5345,-3.5328,-3.5293,-3.5337,-3.5306,-3.531,-3.5348,-3.5393,-3.5399,-3.5405,-3.5475,-3.549,-3.5503,0,0,0,0,0,0,-3.5403,-3.5377,-3.5353,-3.5399,-3.5396,-3.5374,-3.5402,-3.5372,-3.5378,-3.5371,-3.5332,-3.5329,-3.5371,-3.5363,-3.533,-3.5407,-3.5359,-3.5366,-3.5411,-3.5425,-3.5436,-3.5437,-3.5267,0,0,0,0,0,-3.5425,-3.5443,-3.5419,-3.5462,-3.5461,-3.5432,-3.544,-3.5416,-3.5411,-3.5409,-3.5395,-3.5392,-3.5405,-3.5414,-3.5425,-3.5479,-3.5475,-3.5507,-3.5518,-3.5528,-3.5534,-3.5563,-3.5577,-3.5428,-3.5428,-3.5428,0,0,-3.547,-3.5458,-3.5471,-3.5476,-3.5471,-3.5491,-3.5432,-3.5455,-3.5469,-3.5412,-3.5445,-3.5435,-3.5429,-3.5474,-3.5494,-3.5469,-3.5575,-3.5536,-3.5543,-3.5545,-3.5571,-3.5585,-3.5598,-3.5433,-3.5432,-3.5431,0,0,-3.5562,-3.5555,-3.559,-3.5586,-3.5578,-3.5559,-3.5568,-3.5551,-3.5543,-3.5575,-3.5533,-3.555,-3.5573,-3.5571,-3.5573,-3.5665,-3.5633,-3.567,-3.573,-3.5758,-3.577,-3.578,-3.5814,-3.5826,-3.5677,-3.5677,-3.5677,0,-3.5619,-3.5647,-3.5612,-3.5638,-3.5642,-3.5592,-3.5627,-3.5625,-3.5622,-3.5626,-3.5598,-3.5627,-3.5619,-3.5664,-3.5687,-3.569,-3.5699,-3.5671,-3.5771,-3.5781,-3.579,-3.5821,-3.5834,-3.5681,-3.5681,-3.568,-3.568,0,-3.5718,-3.5737,-3.5767,-3.5765,-3.5772,-3.5803,-3.5773,-3.5785,-3.5761,-3.5745,-3.5779,-3.5768,-3.5776,-3.5784,-3.5761,-3.5826,-3.5811,-3.5778,-3.5729,-3.5809,-3.5838,-3.585,-3.5688,-3.5686,-3.5685,-3.5684,0,0,-3.5855,-3.5834,-3.5846,-3.5845,-3.5833,-3.5848,-3.5877,-3.5885,-3.5896,-3.5896,-3.5919,-3.5941,-3.591,-3.5913,-3.5889,-3.5914,-3.5988,-3.5877,-3.5877,-3.5899,-3.606,-3.6085,-3.61,-3.5967,-3.5969,-3.5971,-3.6061,0,-3.5944,-3.5992,-3.5962,-3.6015,-3.6033,-3.5986,-3.6011,-3.6008,-3.5994,-3.6007,-3.5992,-3.6008,-3.5966,-3.5967,-3.599,-3.5975,-3.602,-3.5968,-3.5989,-3.599,-3.5992,-3.6115,-3.6141,-3.6226,-3.6072,-3.6074,-3.6075,0,-3.6053,-3.6058,-3.6112,-3.6098,-3.6105,-3.6128,-3.6133,-3.6147,-3.6142,-3.613,-3.6133,-3.6103,-3.6131,-3.6083,-3.6122,-3.6087,-3.6094,-3.6088,-3.609,-3.6091,-3.6038,-3.6119,-3.6253,-3.6266,-3.6092,-3.6091,-3.609,0,-3.6148,-3.6168,-3.6204,-3.6204,-3.6189,-3.6206,-3.6201,-3.6193,-3.62,-3.6205,-3.6209,-3.6217,-3.6222,-3.6229,-3.6202,-3.6169,-3.6245,-3.6194,-3.6236,-3.6237,-3.6253,-3.6253,-3.639,-3.6258,-3.6258,-3.6258,-3.6258,0,-3.625,-3.6286,-3.6247,-3.6269,-3.6307,-3.6273,-3.6312,-3.6302,-3.6296,-3.6315,-3.6275,-3.6294,-3.6258,-3.6274,-3.6253,-3.6288,-3.6291,-3.6282,-3.6276,-3.6286,-3.6287,-3.629,-3.6283,-3.6261,-3.626,-3.626,-3.6259,0,-3.6363,-3.6339,-3.6374,-3.6357,-3.6353,-3.6383,-3.6368,-3.6387,-3.6371,-3.6396,-3.64,-3.6375,-3.6391,-3.6365,-3.6379,-3.6365,-3.6414,-3.6399,-3.6416,-3.6411,-3.6455,-3.6451,-3.6599,-3.6617,-3.6474,-3.6475,-3.6476,0,-3.643,-3.6456,-3.6442,-3.6452,-3.6448,-3.6465,-3.6472,-3.644,-3.6448,-3.6445,-3.6466,-3.6479,-3.6488,-3.6517,-3.6499,-3.651,-3.6495,-3.6546,-3.6496,-3.6505,-3.6496,-3.6495,-3.6497,-3.6556,-3.6558,-3.6559,-3.656,0,-3.6551,-3.6537,-3.6549,-3.6556,-3.6566,-3.657,-3.6572,-3.6582,-3.6548,-3.656,-3.6577,-3.6584,-3.6598,-3.6611,-3.6618,-3.6612,-3.6581,-3.6576,-3.6587,-3.6597,-3.6605,-3.6601,-3.6444,-3.6573,-3.6572,-3.6571,-3.657,-3.657,-3.6642,-3.6664,-3.6657,-3.6671,-3.6669,-3.6672,-3.669,-3.6676,-3.6689,-3.6698,-3.6678,-3.6699,-3.6695,-3.67,-3.6698,-3.6715,-3.6692,-3.6707,-3.6711,-3.6715,-3.6722,-3.6603,-3.6716,-3.6715,-3.6715,-3.6715,-3.6714,0,-3.6761,-3.6755,-3.6769,-3.6772,-3.6784,-3.6753,-3.6754,-3.6765,-3.6785,-3.6783,-3.6792,-3.6812,-3.6825,-3.681,-3.682,-3.6837,-3.6823,-3.6841,-3.6839,-3.6838,-3.6741,-3.6731,-3.6852,-3.6852,-3.6852,-3.6852,-3.6852,-3.6852,-3.6825,-3.6859,-3.6846,-3.6879,-3.6873,-3.6893,-3.6896,-3.6899,-3.6897,-3.692,-3.6931,-3.6921,-3.6914,-3.6924,-3.6935,-3.693,-3.6936,-3.6959,-3.6949,-3.6859,-3.6845,-3.6832,-3.6823,-3.6961,-3.6961,-3.7045,-3.7046,-3.7047]},{"header":{"parameterUnit":"m.s-1","parameterCategory":1,"la1":30.2991,"la2":30.254,"lo1":-89.0895,"lo2":-89.0444,"dy":0.0017,"dx":0.0017,"nx":28,"ny":28,"refTime":"2024-06-07T09:00:00:Z","depth":0,"parameterNumber":3,"parameterNumberName":"V-component_of_WINDS"},"data":[0,0,0,0,0,0,0,0,0,0,0,0,0,0,0,0,0,0,0,0,0,0,0,0,0,0,0,0,0,0,0,0,0,0,0,0,0,0,0,0,0,0,0,0,0,0,0,0,0,0,0,0,0,0,0,0,0,0,-0.0216,-0.0216,0,-0.0253,-0.0253,-0.0254,-0.0241,-0.024,-0.024,-0.0239,-0.0279,-0.028,-0.0282,0,0,0,0,0,0,0,0,0,0,0,0,0,-0.0133,-0.0135,-0.0215,-0.0216,-0.0216,-0.0253,-0.0253,-0.0254,-0.0241,-0.024,-0.0239,-0.0238,-0.0278,-0.028,-0.0282,0,0,0,0,0,0,0,0,0,0,0,0,0,-0.017,-0.0136,-0.0215,-0.0215,-0.0215,-0.0253,-0.0253,-0.0254,-0.0242,-0.024,-0.0239,-0.0238,-0.0277,-0.028,-0.0283,-0.0324,0,0,-0.0291,-0.0292,0,0,0,0,0,0,0,0,-0.0168,-0.0173,-0.0214,-0.0215,-0.0215,-0.0241,-0.0239,-0.0278,-0.0242,-0.0231,-0.0239,-0.0237,-0.0267,-0.0271,-0.028,-0.0326,-0.0328,-0.0291,-0.0293,-0.0294,-0.0295,0,0,0,0,0,0,0,-0.0165,-0.0171,-0.023,-0.0215,-0.0215,-0.0212,-0.0216,-0.0246,-0.0256,-0.0232,-0.0231,-0.0236,-0.0267,-0.0278,-0.0281,-0.0328,-0.0291,-0.0294,-0.0295,-0.0296,-0.0409,-0.041,0,0,0,0,0,0,-0.0162,-0.0169,-0.0229,-0.0231,-0.0188,-0.0215,-0.0219,-0.0234,-0.0255,-0.0258,-0.0237,-0.0235,-0.0274,-0.0278,-0.0283,-0.0332,-0.0294,-0.0297,-0.0298,-0.0407,-0.0409,-0.041,0,0,0,0,0,0,-0.0161,-0.0168,-0.0228,-0.02,-0.0207,-0.0218,-0.0234,-0.0235,-0.0246,-0.0259,-0.0261,-0.0246,-0.0273,-0.0279,-0.0314,-0.0333,-0.0298,-0.03,-0.0406,-0.0408,-0.041,-0.0432,0,0,0,0,0,0,-0.0158,-0.0167,-0.0183,-0.0201,-0.0209,-0.0258,-0.0236,-0.0237,-0.0251,-0.0249,-0.0268,-0.027,-0.0272,-0.031,-0.0316,-0.0336,-0.0303,-0.0404,-0.0407,-0.0409,-0.0429,-0.0434,-0.0438,0,0,0,0,0,-0.0156,-0.0189,-0.0184,-0.0191,-0.0229,-0.0259,-0.0264,-0.0266,-0.0252,-0.0268,-0.0276,-0.0269,-0.033,-0.0313,-0.0321,-0.0342,-0.0403,-0.0406,-0.0409,-0.0427,-0.0433,-0.0438,0,0,0,0,0,0,-0.0174,-0.0191,-0.0186,-0.0226,-0.0241,-0.0257,-0.0277,-0.0272,-0.0292,-0.0289,-0.0291,-0.0296,-0.0331,-0.034,-0.0321,-0.0383,-0.0364,-0.0369,-0.0376,-0.0382,-0.0386,-0.0383,-0.0305,0,0,0,0,0,-0.0183,-0.0206,-0.0219,-0.0252,-0.026,-0.0267,-0.0281,-0.028,-0.0296,-0.0303,-0.0314,-0.033,-0.0352,-0.0367,-0.0389,-0.043,-0.0434,-0.0448,-0.0453,-0.0457,-0.0461,-0.0482,-0.0489,-0.042,-0.042,-0.042,0,0,-0.0201,-0.0213,-0.0227,-0.0256,-0.0268,-0.0292,-0.0273,-0.0299,-0.0316,-0.0307,-0.034,-0.0349,-0.0367,-0.0405,-0.0422,-0.0413,-0.048,-0.046,-0.0463,-0.0465,-0.0486,-0.0493,-0.0498,-0.0422,-0.0422,-0.0422,0,0,-0.0246,-0.0258,-0.0286,-0.0298,-0.0316,-0.032,-0.0327,-0.0344,-0.0348,-0.0382,-0.0375,-0.0396,-0.0435,-0.0447,-0.0459,-0.0508,-0.0502,-0.0515,-0.0539,-0.056,-0.0565,-0.057,-0.0587,-0.0593,-0.0519,-0.0519,-0.0519,0,-0.0267,-0.0302,-0.0302,-0.0328,-0.0341,-0.0333,-0.0362,-0.0373,-0.0397,-0.0406,-0.0396,-0.0444,-0.0456,-0.0496,-0.0507,-0.0517,-0.0525,-0.0513,-0.0564,-0.0569,-0.0574,-0.059,-0.0596,-0.052,-0.052,-0.052,-0.052,0,-0.0326,-0.035,-0.0371,-0.0394,-0.0409,-0.0437,-0.0441,-0.0456,-0.0454,-0.0459,-0.0493,-0.0506,-0.053,-0.0539,-0.0538,-0.0579,-0.0573,-0.0564,-0.0545,-0.0581,-0.0597,-0.0603,-0.0522,-0.0522,-0.0521,-0.0521,0,0,-0.0385,-0.0406,-0.0414,-0.0424,-0.0442,-0.0461,-0.0488,-0.051,-0.0523,-0.0539,-0.0562,-0.0594,-0.0585,-0.0598,-0.0598,-0.0617,-0.0653,-0.0605,-0.0605,-0.0613,-0.0699,-0.0706,-0.0713,-0.0649,-0.065,-0.0651,-0.0697,0,-0.0432,-0.0478,-0.0479,-0.0522,-0.0544,-0.0535,-0.0559,-0.0572,-0.0578,-0.0597,-0.0603,-0.0626,-0.0612,-0.062,-0.0638,-0.0645,-0.0671,-0.0642,-0.067,-0.0671,-0.0666,-0.0721,-0.0729,-0.0772,-0.0703,-0.0704,-0.0705,0,-0.0493,-0.051,-0.0555,-0.0569,-0.0578,-0.0599,-0.0619,-0.0638,-0.0653,-0.0655,-0.0669,-0.0666,-0.0693,-0.0674,-0.0711,-0.0691,-0.0703,-0.0708,-0.071,-0.0713,-0.0691,-0.0726,-0.0786,-0.0792,-0.0714,-0.0714,-0.0713,0,-0.0531,-0.0566,-0.0597,-0.0605,-0.0623,-0.0637,-0.0645,-0.0659,-0.0672,-0.0689,-0.0698,-0.0718,-0.073,-0.0746,-0.0748,-0.0734,-0.0785,-0.0766,-0.0788,-0.0788,-0.08,-0.0799,-0.0863,-0.0807,-0.0807,-0.0807,-0.0807,0,-0.0583,-0.0611,-0.0614,-0.0633,-0.0664,-0.0664,-0.0694,-0.0701,-0.0713,-0.0733,-0.0727,-0.0746,-0.0748,-0.0768,-0.077,-0.08,-0.0806,-0.0808,-0.0809,-0.0809,-0.0809,-0.0817,-0.0814,-0.0809,-0.0808,-0.0808,-0.0808,0,-0.0631,-0.0634,-0.0668,-0.0681,-0.0685,-0.0707,-0.0718,-0.0736,-0.074,-0.0766,-0.0772,-0.0779,-0.0801,-0.0805,-0.0832,-0.0834,-0.087,-0.0867,-0.0864,-0.0864,-0.0886,-0.0884,-0.0957,-0.0966,-0.0905,-0.0905,-0.0906,0,-0.0664,-0.0685,-0.07,-0.0713,-0.0721,-0.0742,-0.0755,-0.0755,-0.0769,-0.0787,-0.0803,-0.0825,-0.0843,-0.0879,-0.0887,-0.0907,-0.0905,-0.0929,-0.0908,-0.0907,-0.0905,-0.0904,-0.0906,-0.0933,-0.0934,-0.0935,-0.0935,0,-0.0722,-0.0722,-0.0741,-0.076,-0.0775,-0.0791,-0.0805,-0.0816,-0.0818,-0.0834,-0.0856,-0.087,-0.0897,-0.0919,-0.0939,-0.0947,-0.0941,-0.0941,-0.0948,-0.0948,-0.0946,-0.0947,-0.0875,-0.094,-0.0939,-0.0939,-0.0939,-0.0939,-0.0764,-0.0781,-0.0794,-0.0815,-0.0826,-0.0839,-0.0856,-0.0862,-0.0881,-0.0903,-0.0902,-0.0926,-0.094,-0.0966,-0.0976,-0.0995,-0.0987,-0.0997,-0.0999,-0.1001,-0.1003,-0.0942,-0.0999,-0.0999,-0.0999,-0.0999,-0.0998,0,-0.0821,-0.0829,-0.0848,-0.0867,-0.0883,-0.0876,-0.0891,-0.0905,-0.0927,-0.094,-0.0957,-0.0983,-0.1003,-0.1012,-0.1032,-0.1046,-0.1044,-0.1052,-0.1051,-0.1053,-0.1009,-0.1001,-0.1053,-0.1053,-0.1053,-0.1053,-0.1053,-0.1053,-0.0853,-0.0882,-0.0884,-0.0919,-0.0926,-0.095,-0.0959,-0.0971,-0.0981,-0.101,-0.1027,-0.1032,-0.1043,-0.1064,-0.1083,-0.1085,-0.1093,-0.1101,-0.1102,-0.1061,-0.1056,-0.1051,-0.1043,-0.1103,-0.1103,-0.1144,-0.1144,-0.1145]}]]